Simultaneous Nadir Overpasses (SNOs) Predictions

Prediction of SNOs between AQUA and METOP-C Satellite Orbit:

Table of predicted SNOs for the next 14.0 days since TLE Epoch: 9/23/2023
Index Date (AQUA) Time (AQUA) Lat,Lon (AQUA) SZA (AQUA ) Date (METOP-C) Time (METOP-C) Lat,Lon (METOP-C) SZA (METOP-C ) Distance(km) Time Diff (sec)
1 09/23/2023 09:41:59 74.75, 30.91 74.72 09/23/2023 09:40:52 74.75, 30.90 74.73 0.23 67
2 09/23/2023 10:31:23 -74.80,-161.57 105.22 09/23/2023 10:31:32 -74.80,-161.64 105.22 2.09 9
3 09/23/2023 11:20:56 75.20, 5.02 75.21 09/23/2023 11:22:04 75.21, 6.85 75.20 52.04 68
4 09/26/2023 02:44:26 -74.28, -43.55 104.71 09/26/2023 02:43:19 -74.20, -46.11 104.76 77.72 67
5 09/26/2023 03:34:01 74.79, 122.83 75.83 09/26/2023 03:33:47 74.80, 122.79 75.84 1.50 14
6 09/26/2023 04:23:25 -74.84, -69.64 104.11 09/26/2023 04:24:27 -74.86, -69.73 104.10 3.20 62
7 09/28/2023 20:36:35 -74.81, 47.18 103.11 09/28/2023 20:36:02 -74.78, 47.17 103.13 2.82 33
8 09/28/2023 21:26:01 74.86,-145.32 76.97 09/28/2023 21:26:41 74.84,-145.35 76.94 3.24 40
9 10/01/2023 13:39:10 74.81, -28.44 77.95 10/01/2023 13:38:16 74.79, -28.38 77.93 2.83 54
10 10/01/2023 14:28:34 -74.85, 139.10 101.99 10/01/2023 14:28:56 -74.86, 139.15 101.98 1.89 22
11 10/04/2023 06:41:41 -74.78,-103.95 101.04 10/04/2023 06:40:32 -74.77,-104.01 101.05 1.88 69
12 10/04/2023 07:31:07 74.84, 63.54 79.04 10/04/2023 07:31:10 74.85, 63.55 79.06 1.66 3
13 10/04/2023 08:20:36 -75.13,-129.59 100.65 10/04/2023 08:21:46 -75.13,-128.34 100.66 35.47 70
14 10/06/2023 23:44:03 74.28,-178.32 79.51 10/06/2023 23:42:57 74.20, 178.94 79.44 83.47 66
15 10/07/2023 00:33:37 -74.83, -12.03 99.93 10/07/2023 00:33:26 -74.83, -12.08 99.93 1.40 11



Historial Predications of SNOs between AQUA and METOP-C
